Regional Weather Roundup
Issued by NWS

Home | Current Version | Previous Version | Text Only | Print | Product List | Glossary On
Versions: 1 2 3 4 5 6 7 8 9 10 11 12 13 14 15 16 17 18 19 20 21 22 23 24 25 26 27 28 29 30 31 32 33 34 35 36 37 38 39 40 41 42 43 44 45 46 47 48 49 50
000
ASUS43 KMKX 201611
RWRWI

WISCONSIN REGIONAL WEATHER ROUNDUP
NATIONAL WEATHER SERVICE MILWAUKEE/SULLIVAN WI
1100 AM CDT SUN APR 20 2014

NOTE: "FAIR" INDICATES FEW OR NO CLOUDS BELOW 12,000 FEET WITH NO
SIGNIFICANT WEATHER AND/OR OBSTRUCTIONS TO VISIBILITY.

WIZ001-002-006>008-014>016-023>028-201700-
NORTHWEST WISCONSIN

CITY           SKY/WX    TMP DP  RH WIND       PRES   REMARKS
SUPERIOR ARPT  SUNNY     52  38  59 CALM      30.05S
ASHLAND        SUNNY     54  40  59 CALM      30.05F
HAYWARD        SUNNY     58  41  53 CALM      30.04F
SIREN          SUNNY     57  40  52 CALM      30.05S
RICE LAKE      SUNNY     60  49  68 CALM      30.06S
LADYSMITH      SUNNY     62  52  68 SW5       30.06S
EAU CLAIRE     PTSUNNY   63  52  67 S7        30.05S
MENOMONIE      CLOUDY    62  52  69 W3        30.05S
NEW RICHMOND   SUNNY     62  47  56 E3        30.04F
OSCEOLA        SUNNY     64  45  50 S3        30.06F
$$

WIZ003>005-009-010-017-018-201700-
NORTH CENTRAL WISCONSIN

CITY           SKY/WX    TMP DP  RH WIND       PRES   REMARKS
WOODRUFF       SUNNY     59  46  60 S7        30.05S
RHINELANDER    CLOUDY    55  43  63 SW8       30.07S
EAGLE RIVER    SUNNY     57  42  58 SW7       30.05S
LAND O LAKES   SUNNY     59  42  53 SW6       30.05S
PHILLIPS       SUNNY     61  49  64 SW5       30.04S
TOMAHAWK       CLOUDY    55  46  69 CALM      30.07S
MEDFORD        PTSUNNY   56  51  80 SW9       30.07S
MERRILL        CLOUDY    55  47  75 SW3       30.08S
$$

WIZ029-030-035-036-043>047-201700-
CENTRAL WISCONSIN

CITY           SKY/WX    TMP DP  RH WIND       PRES   REMARKS
WAUSAU         CLOUDY    55  48  77 SW8       30.07S
MOSINEE        MOSUNNY   54  52  94 S12       30.09F
MARSHFIELD     CLOUDY    57  49  74 SW15      30.08R
STEVENS POINT  CLOUDY    50  47  87 S10       30.10F
WAUPACA        RAIN      55  43  62 CALM      30.13S
WAUTOMA        CLOUDY    59  41  51 S6        30.12F
WISC RAPIDS    LGT RAIN  52  49  89 S7        30.11S
CAMP DOUGLAS   LGT RAIN  55  52  88 SE5       30.10S
$$

WIZ011>013-019>022-031-037>040-048>050-201700-
NORTHEAST WISCONSIN

CITY           SKY/WX    TMP DP  RH WIND       PRES   REMARKS
ANTIGO           N/A     51  48  88 S8        30.09S
STURGEON BAY   CLOUDY    39  34  81 S10       30.15S WCI  32
GREEN BAY      LGT RAIN  50  43  77 S6        30.14R
MANITOWOC      CLOUDY    43  35  73 S12       30.16F
APPLETON       CLOUDY    52  43  71 VRB5      30.14S
CLINTONVILLE   RAIN      50  46  87 S6        30.12S
OSHKOSH        CLOUDY    55  40  56 CALM      30.13S
$$

WIZ032>034-041-042-053>061-201700-
SOUTHWEST WISCONSIN

CITY           SKY/WX    TMP DP  RH WIND       PRES   REMARKS
LA CROSSE      LGT RAIN  54  50  86 S7        30.09R
SPARTA         RAIN      53  49  86 S6        30.11R
VIROQUA        CLOUDY    53  49  85 S3        30.11S
BOSCOBEL       CLOUDY    66  43  43 W6        30.11S
PRAIRIE DU CHI RAIN      59  46  62 CALM      30.11S
PLATTEVILLE    FAIR      68  42  38 SW15      30.14R
$$

WIZ056-057-062-063-064-067-068-201700-
SOUTH CENTRAL WISCONSIN

CITY           SKY/WX    TMP DP  RH WIND       PRES   REMARKS
BARABOO/DELLS  CLOUDY    63  40  41 SW8       30.12R
LONE ROCK      CLOUDY    65  43  44 W6        30.12R
WATERTOWN      PTSUNNY   62  41  46 S6        30.14S
MADISON        PTSUNNY   67  41  38 S16       30.12F
MIDDLETON      FAIR      69  37  31 S13       30.12S
MONROE         MOSUNNY   67  41  38 S16       30.13S
JANESVILLE     SUNNY     68  36  30 SW15      30.14F
$$

WIZ051-052-058>065-066-070>072-201700-
SOUTHEAST WISCONSIN

CITY           SKY/WX    TMP DP  RH WIND       PRES   REMARKS
MILWAUKEE      PTSUNNY   65  36  34 S15       30.17F
WAUKESHA       PTSUNNY   59  36  41 S10       30.17F
MILWAUKEE/TIMM SUNNY     63  34  34 S10       30.17F
RACINE         MOSUNNY   56  35  45 SE10      30.19F
BURLINGTON     MOSUNNY   67  37  32 W15       30.16F
KENOSHA        MOSUNNY   67  38  34 S13       30.17F
FOND DU LAC    CLOUDY    58  39  49 SW10      30.12F
SHEBOYGAN      CLOUDY    49  38  65 SE6       30.15F
WEST BEND      CLOUDY    61  36  39 S8        30.15S
JUNEAU         PTSUNNY   63  34  33 S17G23    30.15S
$$

LSZ147-162-201700-
LAKE SUPERIOR

STATION/POSITION TIME  TEMP    WIND        PRES    WAVE
                       AIR SEA DIR/SP/G            HT/PER
                 (UTC) (F)     (DEG/KT/KT) (MB)    (FT/S)
DEVILS ISLAND    1600   38     230/  8/  9 1018.3F
PORT WING        1500   36     300/  6/  6 1017.6F
SAXON HARBOR     1500             CALM     1017.6
$$

LMZ867-665-643>646-201700-
LAKE MICHIGAN

STATION/POSITION TIME  TEMP    WIND        PRES    WAVE
                       AIR SEA DIR/SP/G            HT/PER
                 (UTC) (F)     (DEG/KT/KT) (MB)    (FT/S)
NORTHPORT PIER   1500   38     170/ 11/ 19 1020.7F
SISTER BAY       1509   37     190/ 20/ 28   N/A
KEWAUNEE LAKESHO 1500   39     170/ 19/ 21 1021.5F
SHEBOYGAN LAKESH 1600   41     180/ 17/ 18 1021.8F
PORT WASHINGTON  1540   43     190/  8/ 11 1022.0F
MILWAUKEE LAKESH 1500   43     130/  2/  4   N/A
KENOSHA   LAKESH 1600   43     170/ 11/ 13   N/A
$$

TC  - TEMPERATURE IN CELSIUS
VSB - VISIBILITY IN STATUTE MILES
WCI - WIND CHILL INDEX
HX  - HEAT INDEX




USA.gov is the U.S. government's official web portal to all federal, state and local government web resources and services.